SCP
-0 -0 0 0 0 0 -0 -0 0 0 0 0 0 0 0 0 0 0 0 -0 -0 -0 -0 -0 -0 -0 -0 0 -0 0 -0 -0 -0 0 0 0 0 0 -0 -0 -0 -0 -0 -0 -0 -0 -0 -0 -0
0 0 0 0 0 0 -0 -0 0 0 0 0 0 0 0 0 0 -0 0 -0 -0 -0 -0 -0 -0 -0 -0 -0 0 -0 -0 -0 -0 -0 0 0 0 0 -0 -0 -0 -0 -0 -0 -0 -0 -0 -0 -0
0 0 0 0 -0 -0 -0 0 0 -0 -0 0 0 0 0 0 0 -0 -0 -0 -0 -0 -0 -0 -0 -0 -0 -0 -0 -0 -0 -0 -0 -0 -0 0 0 0 0 -0 -0 -0 -0 -0 -0 -0 -0 -0 -0
0 0 0 0 -0 -0 0 0 0 -0 0 0 0 0 0 0 0 0 -0 -0 -0 -0 -0 -0 -0 -0 -0 -0 -0 -0 -0 -0 -0 -0 -0 -0 0 0 0 0 0 -0 -0 -0 -0 -0 -0 -0 0
0 0 0 0 0 -0 0 0 0 0 0 0 0 0 0 0 -0 -0 -0 -0 -0 -0 -0 -0 -0 -0 -0 -0 0 -0 -0 -0 -0 -0 -0 0 0 0 0 0 0 0 0 0 0 0 0 0 0
0 0 0 0 0 -0 0 0 0 0 0 0 0 0 0 0 -0 -0 -0 -0 -0 -0 -0 -0 -0 0 -0 0 0 0 0 -0 -0 -0 -0 -0 0 0 0 0 0 0 0 0 0 0 0 0 0
0 0 0 0 0 0 0 0 0 0 0 0 0 0 0 0 0 0 0 0 0 -0 -0 -0 0 0 0 0 0 0 0 0 0 0 -0 -0 -0 0 -0 0 0 0 0 0 0 0 0 0 0
0 0 0 0 0 0 0 0 0 0 0 0 0 0 0 -0 -0 0 0 0 0 0 0 0 0 0 0 0 0 0 0 0 0 0 0 0 0 0 0 0 -0 -0 -0 -0 0 0 0 0 0
0 0 0 0 0 0 0 0 0 0 0 0 0 0 0 -0 0 0 0 0 0 0 0 0 0 0 0 0 0 0 0 0 0 0 0 0 0 0 0 0 0 0 0 0 0 0 0 0 0
0 0 0 0 0 0 0 0 0 0 0 0 0 0 -0 0 0 -0 -0 -0 0 0 0 0 0 0 0 0 0 0 0 0 0 0 0 0 -0 0 0 0 0 0 0 0 0 0 0 0 0
0 0 0 0 -0 0 0 0 0 0 0 0 0 0 0 0 0 0 -0 -0 -0 -0 0 0 0 0 -0 0 0 0 0 0 0 0 0 0 0 0 0 0 0 0 0 0 0 0 0 0 0
0 0 0 0 0 0 0 0 0 0 0 0 0 0 0 0 0 0 0 -0 -0 -0 0 0 -0 -0 -0 -0 -0 -0 -0 -0 0 0 0 0 0 0 0 0 0 0 0 0 0 0 0 0 0
0 0 0 0 0 0 0 0 0 0 0 0 0 0 0 0 0 0 0 0 0 -0 0 0 0 0 0 0 -0 -0 -0 -0 -0 -0 -0 0 0 0 0 0 0 0 0 0 0 0 0 0 0
0 0 0 0 0 0 0 0 0 0 0 0 0 0 0 0 0 0 0 0 0 0 0 0 0 0 0 0 0 0 0 0 0 -0 -0 -0 0 0 0 0 0 0 0 0 0 0 0 0 0
0 0 0 0 0 0 0 0 0 0 0 0 0 0 0 0 0 0 0 0 0 0 0 0 0 0 0 0 0 0 0 0 0 0 0 0 0 0 0 0 0 0 0 0 0 0 0 0 0
0 0 0 0 0 0 0 0 0 0 0 0 0 0 0 0 0 0 0 0 0 0 0 0 0 0 0 0 0 0 0 0 0 0 0 0 0 0 0 0 0 0 0 0 0 0 0 0 0
0 0 0 0 0 0 0 0 0 0 0 0 0 0 0 0 0 0 0 0 0 0 0 0 0 0 0 0 0 0 0 0 0 0 0 0 0 0 0 0 0 0 0 0 0 0 0 0 0
0 0 0 0 0 0 0 0 0 0 0 0 0 0 0 0 0 0 0 0 0 0 0 0 0 0 0 0 0 0 0 0 0 0 0 0 0 0 0 0 0 0 0 0 0 0 0 0 0
0 0 0 0 0 0 0 0 0 0 0 0 0 0 0 0 0 0 0 0 0 0 0 0 0 0 0 0 0 0 0 0 0 0 0 0 0 0 0 0 0 0 0 0 0 0 0 0 0
0 0 0 0 0 0 0 0 0 0 0 0 0 0 0 0 0 0 0 0 0 0 0 0 0 0 0 0 0 0 0 0 0 0 0 0 0 0 0 0 0 0 0 0 0 0 0 0 0
0 0 0 0 0 0 0 0 0 0 0 0 0 0 0 0 0 0 0 0 0 0 0 0 0 0 0 0 0 0 0 0 0 0 0 0 0 0 0 0 0 0 0 0 0 0 0 0 0
0 0 0 0 0 0 0 0 0 0 0 0 0 0 0 0 0 0 0 0 0 0 0 0 0 0 0 0 0 1 0 0 0 0 0 0 0 0 0 0 0 0 0 0 0 0 0 0 0
0 0 0 0 0 0 0 0 0 0 0 0 0 0 0 0 0 0 0 0 0 0 0 0 0 0 0 0 0 0 0 0 0 0 0 0 0 0 0 0 0 0 0 0 0 0 0 0 0
0 0 0 0 0 0 0 0 0 0 0 0 0 0 0 0 0 0 0 0 0 0 0 0 0 0 0 0 0 0 1 1 1 0 0 0 1 1 0 0 0 0 0 0 0 0 0 0 0
0 0 0 0 0 0 0 0 0 0 0 0 0 0 0 0 0 0 0 0 0 0 0 0 0 0 0 0 0 0 0 1 1 1 0 0 1 1 1 1 0 0 0 0 0 0 0 0 0
0 0 0 0 0 0 0 0 0 0 0 0 0 0 0 0 0 0 0 0 0 0 0 0 0 0 0 0 0 0 0 0 0 0 0 0 1 0 0 0 0 0 0 0 0 0 0 0 0
0 0 0 0 0 0 0 0 0 0 0 0 0 0 0 0 0 0 0 0 0 0 0 0 0 0 0 0 0 0 0 0 0 0 0 0 0 0 0 0 0 0 0 0 0 0 0 0 0
0 0 0 0 0 0 0 0 0 0 0 0 0 0 0 0 0 0 0 0 0 0 0 0 0 0 0 0 0 0 0 0 0 0 0 0 0 0 0 0 0 0 0 0 0 0 0 0 0
0 0 0 0 0 0 0 0 0 0 0 0 0 0 0 0 0 0 0 0 0 0 0 0 0 0 0 0 0 0 0 0 0 0 0 0 0 0 0 0 0 0 0 0 0 0 0 0 0
0 0 0 0 0 0 0 0 0 0 0 0 0 0 0 0 0 0 0 0 0 0 0 0 0 0 0 0 0 0 0 0 0 0 0 0 0 0 0 0 0 0 0 0 0 0 0 0 0
Wind_Speed_500mb
16 7 13 5 5 9 18 17 9 12 6 17 26 16 18 28 12 12 41 29 36 37 43 40 40 37 36 35 35 34 27 20 18 16 12 11 13 15 18 18 17 24 18 15 21 21 24 25 25
13 2 3 11 9 15 15 17 6 10 17 13 22 6 4 10 15 41 39 41 39 41 45 42 41 39 35 34 33 31 26 21 18 15 14 12 19 20 24 24 27 23 20 24 25 29 25 24 25
8 2 10 7 9 19 14 12 16 26 30 18 11 5 11 10 21 48 41 47 39 42 46 43 41 38 35 35 34 31 25 14 16 18 15 14 18 20 26 24 25 24 22 23 24 22 21 21 22
6 8 14 8 24 19 22 8 19 23 19 19 16 15 16 19 29 28 48 51 42 41 42 42 41 37 34 36 34 32 25 18 16 18 15 16 20 21 22 24 24 23 18 18 19 19 16 16 18
10 13 11 14 28 31 11 9 24 17 15 16 11 17 17 24 22 28 53 49 45 41 36 42 38 36 32 32 33 30 25 19 16 19 20 16 20 21 21 20 19 19 16 14 14 14 13 12 13
10 13 12 15 26 25 10 10 6 25 31 25 16 13 14 27 30 49 49 46 46 46 37 43 39 35 31 29 28 27 22 18 20 19 16 22 19 16 15 17 19 15 12 9 9 9 8 7 8
12 11 18 21 24 19 11 15 12 19 20 19 8 10 25 32 35 50 47 45 47 44 42 47 42 38 32 31 29 27 22 23 20 26 18 20 20 20 19 14 15 14 11 8 6 5 4 2 3
9 8 26 20 21 21 16 18 8 17 16 16 21 0 16 46 45 50 47 44 44 39 43 48 43 42 39 35 33 29 27 25 25 21 26 24 18 25 23 21 14 12 12 10 7 4 3 2 3
5 6 11 24 23 15 15 11 7 10 18 13 18 8 14 54 53 51 51 46 44 37 34 37 40 39 39 37 34 32 30 25 19 18 18 13 11 11 12 13 13 8 10 8 5 5 4 4 5
10 7 17 20 21 14 15 15 21 5 10 14 22 15 39 38 55 59 57 55 51 45 40 35 34 34 32 33 34 31 30 29 27 25 22 18 15 11 14 15 12 10 8 5 6 7 6 6 7
10 9 17 30 34 34 32 31 17 17 13 23 36 33 43 36 54 58 54 51 51 47 45 40 34 32 33 30 31 32 30 28 29 26 24 23 22 24 21 21 19 17 14 13 12 11 10 12 9
9 24 31 23 41 20 24 36 25 24 27 22 39 47 44 37 52 66 58 47 48 44 47 45 41 38 38 37 31 33 31 29 27 27 25 26 27 31 26 26 20 20 19 15 18 16 15 16 16
7 17 25 24 40 44 25 29 24 32 26 14 14 50 45 35 47 52 62 56 46 46 45 46 43 45 44 43 34 27 27 29 31 31 30 29 28 28 24 23 22 20 18 19 19 20 22 21 21
19 36 32 25 29 47 22 29 36 20 31 14 21 37 40 35 44 46 52 55 59 55 50 50 46 43 43 43 35 34 32 31 31 30 32 35 27 26 25 26 26 25 23 22 21 22 22 23 23
13 8 14 31 23 22 37 19 18 32 26 27 24 27 32 34 37 46 47 51 55 60 54 53 59 46 44 42 40 39 39 37 35 39 36 31 32 31 28 28 28 26 26 25 25 24 26 27 26
15 4 19 19 34 22 17 20 15 40 33 20 32 33 38 38 41 38 38 47 54 54 59 53 55 59 49 46 44 42 41 42 41 37 38 37 35 36 36 34 32 30 30 30 30 30 31 31 28
18 18 25 22 45 24 17 10 20 49 43 36 32 41 41 39 40 40 44 43 50 43 45 49 49 58 59 49 45 44 43 42 43 43 42 41 39 40 41 39 36 34 35 36 35 35 32 32 31
15 20 16 32 21 33 34 20 25 47 38 27 31 38 45 43 42 41 45 41 49 44 44 54 52 49 57 54 48 44 45 45 46 44 44 42 42 42 42 42 40 39 38 38 36 37 34 36 30
17 23 30 21 25 27 38 30 26 40 33 13 23 37 32 41 40 41 43 41 37 47 46 51 50 43 49 61 57 54 50 49 51 46 45 46 45 44 44 44 44 43 43 42 39 38 39 37 32
36 30 19 9 11 25 19 30 24 29 50 27 32 36 36 24 37 37 45 47 47 47 49 47 47 45 46 53 58 56 54 50 51 49 50 51 51 49 48 46 46 46 46 47 42 46 42 42 35
37 37 18 14 10 8 7 17 23 24 51 62 50 34 28 23 24 20 37 41 47 51 51 51 53 51 50 51 51 53 55 56 59 58 57 56 55 55 54 51 49 50 48 47 47 46 46 44 42
39 24 13 19 15 7 5 12 21 31 33 39 63 40 37 40 29 34 24 36 41 41 41 49 51 52 51 52 55 58 63 64 60 59 60 65 62 60 57 57 56 54 51 48 50 48 46 42 49
18 15 25 14 11 9 12 4 9 15 24 34 52 43 40 46 47 36 34 32 22 25 39 46 46 44 52 56 59 62 66 68 63 57 60 58 59 61 59 59 61 59 57 53 51 51 52 50 48
9 10 16 11 8 8 19 14 8 14 26 14 37 38 20 10 14 19 17 22 30 38 37 42 46 54 54 57 57 64 70 72 71 67 67 64 63 63 63 63 66 64 64 62 58 54 53 52 55
23 21 6 7 10 13 35 16 20 10 11 18 19 34 27 14 5 5 11 15 20 23 32 40 45 48 52 57 60 61 68 73 74 73 69 62 63 70 72 70 69 71 72 68 65 63 60 58 58
39 34 10 13 14 8 27 18 12 41 39 21 26 28 25 16 6 4 4 4 4 8 13 21 23 26 33 41 54 58 65 60 67 71 68 60 62 67 71 73 74 74 73 76 71 71 67 64 64
35 37 21 8 2 9 12 12 5 14 15 30 39 39 35 30 29 32 31 25 21 17 12 10 9 16 24 29 34 44 50 61 65 61 60 56 55 58 62 61 70 71 72 75 76 78 73 72 71
38 39 29 2 9 6 13 10 8 17 22 25 29 38 41 46 45 44 45 46 45 43 37 29 23 20 15 14 18 24 33 43 54 62 67 57 53 56 58 62 58 68 65 68 75 78 77 73 72
24 29 19 9 8 9 9 7 8 19 29 31 27 35 40 42 40 36 37 36 38 37 34 33 32 29 25 23 21 16 12 16 24 33 43 48 55 57 60 64 65 69 66 66 67 67 69 75 77
35 29 49 19 11 4 5 3 20 33 34 41 35 33 36 35 32 29 29 26 27 28 28 28 26 24 23 22 22 20 18 16 16 17 21 26 30 34 39 45 48 53 56 59 64 65 66 66 66
Wind_Direction_500mb
349 47 83 217 240 229 242 253 316 94 79 60 119 26 54 48 21 126 142 153 177 161 157 152 148 151 146 142 139 140 141 137 135 124 113 101 127 137 147 149 140 115 137 127 112 99 101 100 93
347 358 258 261 244 252 253 169 142 131 113 119 87 0 296 92 73 132 146 160 174 159 157 155 151 152 151 146 143 147 143 145 141 127 119 99 110 116 130 128 119 119 123 127 114 94 94 98 93
350 212 265 220 228 265 305 112 156 113 117 142 128 24 19 82 115 143 151 160 167 160 161 159 155 156 155 153 151 151 152 158 137 135 123 119 121 130 140 122 119 113 109 106 119 110 97 90 90
63 239 260 258 265 220 245 69 125 112 136 166 157 120 92 80 135 168 155 157 158 160 169 162 161 159 157 159 156 158 162 165 172 145 133 136 148 129 135 132 126 124 117 114 115 109 97 86 83
288 263 246 234 257 274 75 3 128 130 157 184 195 140 101 126 155 163 154 158 161 156 173 166 167 165 163 164 164 168 175 196 215 153 150 146 137 148 138 136 137 135 129 125 115 112 103 88 80
282 235 252 237 257 251 84 106 264 160 178 185 196 124 111 153 158 151 158 154 144 174 180 175 173 172 172 172 175 179 183 173 153 155 151 154 145 144 151 164 162 154 147 133 128 117 107 93 79
246 283 250 257 265 269 137 142 225 188 180 164 139 233 140 152 162 156 158 158 158 185 178 175 176 178 179 180 180 182 181 171 164 163 164 161 156 145 153 172 159 161 158 164 161 149 137 112 72
307 275 268 268 271 290 122 139 204 229 200 162 181 155 163 167 164 159 159 164 167 188 174 174 177 175 180 181 182 184 186 185 170 174 177 182 173 179 176 181 184 197 183 196 199 213 237 294 353
270 274 239 248 259 275 101 148 166 256 128 142 165 32 132 168 162 161 164 169 175 182 182 178 179 182 183 186 189 192 196 203 209 196 199 187 190 191 177 195 203 223 218 233 228 245 266 290 295
215 232 248 265 269 310 329 184 158 142 203 178 153 129 160 174 169 166 172 174 180 179 184 188 193 186 187 191 190 193 198 206 212 213 211 210 205 205 210 213 224 236 244 232 238 248 260 265 267
219 235 267 273 20 5 339 325 258 178 219 193 185 157 177 182 177 169 180 181 185 186 182 190 199 187 194 199 189 194 194 199 201 202 202 200 184 219 221 232 238 243 241 239 237 245 251 251 268
267 246 271 315 342 355 325 320 293 193 244 223 196 185 187 189 179 177 178 187 188 193 190 191 196 190 203 198 206 207 201 201 199 203 202 200 197 215 222 235 233 235 236 242 252 255 259 267 270
222 248 253 303 334 316 301 296 285 285 238 258 198 178 190 193 184 190 188 180 194 200 199 197 201 201 206 200 209 208 209 205 202 204 207 207 211 219 223 225 236 244 248 249 247 252 259 267 271
187 237 261 299 307 306 281 275 273 266 245 211 167 175 193 198 188 193 198 191 194 197 196 199 199 205 213 207 207 201 212 221 215 217 220 218 219 226 228 228 233 241 246 252 255 256 262 268 272
205 189 297 255 258 282 304 271 251 242 255 229 191 194 198 196 194 203 200 193 206 210 200 202 202 201 208 219 208 208 215 220 223 216 227 230 221 225 233 233 235 239 244 247 250 248 248 257 266
194 200 227 217 232 254 285 270 268 233 249 236 193 210 205 198 202 209 202 206 207 227 205 211 212 200 207 214 215 213 221 221 228 226 227 232 231 229 233 236 240 245 246 249 248 251 254 257 260
205 215 223 227 218 218 234 280 257 271 233 210 224 215 209 203 201 208 205 206 215 227 207 219 227 213 207 209 209 213 218 225 228 230 232 236 237 235 237 241 244 245 245 247 249 250 251 248 262
166 221 220 214 197 206 231 248 281 287 301 201 237 239 214 203 206 206 209 216 206 215 214 213 231 225 214 210 215 218 221 222 228 234 237 239 240 238 238 241 243 245 241 242 247 255 253 263 268
243 211 212 199 216 189 220 240 252 289 293 264 250 262 237 211 213 208 208 212 215 209 217 215 225 224 216 216 218 220 221 224 231 236 238 242 243 242 239 240 242 245 240 247 253 262 257 252 256
242 254 225 175 44 179 209 242 257 270 281 260 245 250 268 239 213 209 205 204 213 209 220 217 226 231 222 221 223 228 227 231 241 240 241 242 246 247 247 245 244 244 241 243 250 252 256 255 249
228 234 237 176 122 23 358 254 223 239 255 270 282 256 257 275 246 216 196 206 216 219 215 222 219 229 234 231 229 232 240 240 242 240 243 244 247 249 249 252 249 246 245 245 247 246 253 255 251
232 223 245 144 139 179 113 262 220 229 225 238 261 249 242 251 249 227 226 221 214 220 230 230 227 224 228 239 234 234 236 247 251 250 249 251 252 252 252 250 251 249 249 247 245 245 255 253 251
247 196 220 149 137 124 170 219 235 263 224 222 228 236 228 236 245 254 244 232 204 214 225 227 224 230 232 230 238 239 241 252 258 256 260 260 258 255 252 249 247 248 248 253 253 242 245 253 253
221 271 180 165 100 253 192 185 203 197 217 217 218 190 168 204 233 234 225 210 210 212 216 221 230 227 225 228 234 240 247 252 255 256 256 260 261 260 257 252 248 247 246 247 249 249 243 247 248
200 194 136 166 186 229 173 187 235 250 73 90 77 80 91 87 81 317 258 253 252 247 239 243 246 244 238 236 235 237 245 253 258 261 262 259 255 257 261 260 255 254 248 248 248 248 247 246 245
202 198 167 172 193 162 154 217 245 227 254 108 97 95 92 95 132 159 324 321 278 275 271 256 257 257 255 249 245 241 239 245 254 257 258 258 252 256 261 262 262 258 256 252 247 248 250 249 248
195 213 212 134 81 121 187 238 208 146 118 103 103 98 95 93 86 79 79 72 58 42 25 357 309 275 270 271 266 257 248 240 241 244 246 248 248 252 257 260 263 263 253 246 244 247 252 252 252
192 199 214 255 134 197 192 193 205 164 136 121 113 111 105 98 89 83 77 72 67 61 53 45 37 26 3 325 293 270 265 260 252 251 253 250 248 248 251 252 252 265 264 255 249 252 258 258 256
196 201 206 186 198 163 133 227 305 148 137 123 112 114 109 100 89 77 70 62 59 55 51 48 46 42 35 28 20 3 327 290 272 264 262 262 261 258 255 253 255 256 257 259 258 258 256 252 254
223 208 196 190 228 231 128 353 340 112 114 112 115 114 102 87 78 69 67 60 51 44 37 36 36 41 41 38 34 26 12 354 334 309 288 276 267 262 260 256 254 254 254 255 256 258 259 260 260
Wind_Speed_850mb
16 7 13 5 5 9 18 17 9 12 6 17 26 16 18 28 12 12 41 29 36 37 43 40 40 37 36 35 35 34 27 20 18 16 12 11 13 15 18 18 17 24 18 15 21 21 24 25 25
13 2 3 11 9 15 15 17 6 10 17 13 22 6 4 10 15 41 39 41 39 41 45 42 41 39 35 34 33 31 26 21 18 15 14 12 19 20 24 24 27 23 20 24 25 29 25 24 25
8 2 10 7 9 19 14 12 16 26 30 18 11 5 11 10 21 48 41 47 39 42 46 43 41 38 35 35 34 31 25 14 16 18 15 14 18 20 26 24 25 24 22 23 24 22 21 21 22
6 8 14 8 24 19 22 8 19 23 19 19 16 15 16 19 29 28 48 51 42 41 42 42 41 37 34 36 34 32 25 18 16 18 15 16 20 21 22 24 24 23 18 18 19 19 16 16 18
10 13 11 14 28 31 11 9 24 17 15 16 11 17 17 24 22 28 53 49 45 41 36 42 38 36 32 32 33 30 25 19 16 19 20 16 20 21 21 20 19 19 16 14 14 14 13 12 13
10 13 12 15 26 25 10 10 6 25 31 25 16 13 14 27 30 49 49 46 46 46 37 43 39 35 31 29 28 27 22 18 20 19 16 22 19 16 15 17 19 15 12 9 9 9 8 7 8
12 11 18 21 24 19 11 15 12 19 20 19 8 10 25 32 35 50 47 45 47 44 42 47 42 38 32 31 29 27 22 23 20 26 18 20 20 20 19 14 15 14 11 8 6 5 4 2 3
9 8 26 20 21 21 16 18 8 17 16 16 21 0 16 46 45 50 47 44 44 39 43 48 43 42 39 35 33 29 27 25 25 21 26 24 18 25 23 21 14 12 12 10 7 4 3 2 3
5 6 11 24 23 15 15 11 7 10 18 13 18 8 14 54 53 51 51 46 44 37 34 37 40 39 39 37 34 32 30 25 19 18 18 13 11 11 12 13 13 8 10 8 5 5 4 4 5
10 7 17 20 21 14 15 15 21 5 10 14 22 15 39 38 55 59 57 55 51 45 40 35 34 34 32 33 34 31 30 29 27 25 22 18 15 11 14 15 12 10 8 5 6 7 6 6 7
10 9 17 30 34 34 32 31 17 17 13 23 36 33 43 36 54 58 54 51 51 47 45 40 34 32 33 30 31 32 30 28 29 26 24 23 22 24 21 21 19 17 14 13 12 11 10 12 9
9 24 31 23 41 20 24 36 25 24 27 22 39 47 44 37 52 66 58 47 48 44 47 45 41 38 38 37 31 33 31 29 27 27 25 26 27 31 26 26 20 20 19 15 18 16 15 16 16
7 17 25 24 40 44 25 29 24 32 26 14 14 50 45 35 47 52 62 56 46 46 45 46 43 45 44 43 34 27 27 29 31 31 30 29 28 28 24 23 22 20 18 19 19 20 22 21 21
19 36 32 25 29 47 22 29 36 20 31 14 21 37 40 35 44 46 52 55 59 55 50 50 46 43 43 43 35 34 32 31 31 30 32 35 27 26 25 26 26 25 23 22 21 22 22 23 23
13 8 14 31 23 22 37 19 18 32 26 27 24 27 32 34 37 46 47 51 55 60 54 53 59 46 44 42 40 39 39 37 35 39 36 31 32 31 28 28 28 26 26 25 25 24 26 27 26
15 4 19 19 34 22 17 20 15 40 33 20 32 33 38 38 41 38 38 47 54 54 59 53 55 59 49 46 44 42 41 42 41 37 38 37 35 36 36 34 32 30 30 30 30 30 31 31 28
18 18 25 22 45 24 17 10 20 49 43 36 32 41 41 39 40 40 44 43 50 43 45 49 49 58 59 49 45 44 43 42 43 43 42 41 39 40 41 39 36 34 35 36 35 35 32 32 31
15 20 16 32 21 33 34 20 25 47 38 27 31 38 45 43 42 41 45 41 49 44 44 54 52 49 57 54 48 44 45 45 46 44 44 42 42 42 42 42 40 39 38 38 36 37 34 36 30
17 23 30 21 25 27 38 30 26 40 33 13 23 37 32 41 40 41 43 41 37 47 46 51 50 43 49 61 57 54 50 49 51 46 45 46 45 44 44 44 44 43 43 42 39 38 39 37 32
36 30 19 9 11 25 19 30 24 29 50 27 32 36 36 24 37 37 45 47 47 47 49 47 47 45 46 53 58 56 54 50 51 49 50 51 51 49 48 46 46 46 46 47 42 46 42 42 35
37 37 18 14 10 8 7 17 23 24 51 62 50 34 28 23 24 20 37 41 47 51 51 51 53 51 50 51 51 53 55 56 59 58 57 56 55 55 54 51 49 50 48 47 47 46 46 44 42
39 24 13 19 15 7 5 12 21 31 33 39 63 40 37 40 29 34 24 36 41 41 41 49 51 52 51 52 55 58 63 64 60 59 60 65 62 60 57 57 56 54 51 48 50 48 46 42 49
18 15 25 14 11 9 12 4 9 15 24 34 52 43 40 46 47 36 34 32 22 25 39 46 46 44 52 56 59 62 66 68 63 57 60 58 59 61 59 59 61 59 57 53 51 51 52 50 48
9 10 16 11 8 8 19 14 8 14 26 14 37 38 20 10 14 19 17 22 30 38 37 42 46 54 54 57 57 64 70 72 71 67 67 64 63 63 63 63 66 64 64 62 58 54 53 52 55
23 21 6 7 10 13 35 16 20 10 11 18 19 34 27 14 5 5 11 15 20 23 32 40 45 48 52 57 60 61 68 73 74 73 69 62 63 70 72 70 69 71 72 68 65 63 60 58 58
39 34 10 13 14 8 27 18 12 41 39 21 26 28 25 16 6 4 4 4 4 8 13 21 23 26 33 41 54 58 65 60 67 71 68 60 62 67 71 73 74 74 73 76 71 71 67 64 64
35 37 21 8 2 9 12 12 5 14 15 30 39 39 35 30 29 32 31 25 21 17 12 10 9 16 24 29 34 44 50 61 65 61 60 56 55 58 62 61 70 71 72 75 76 78 73 72 71
38 39 29 2 9 6 13 10 8 17 22 25 29 38 41 46 45 44 45 46 45 43 37 29 23 20 15 14 18 24 33 43 54 62 67 57 53 56 58 62 58 68 65 68 75 78 77 73 72
24 29 19 9 8 9 9 7 8 19 29 31 27 35 40 42 40 36 37 36 38 37 34 33 32 29 25 23 21 16 12 16 24 33 43 48 55 57 60 64 65 69 66 66 67 67 69 75 77
35 29 49 19 11 4 5 3 20 33 34 41 35 33 36 35 32 29 29 26 27 28 28 28 26 24 23 22 22 20 18 16 16 17 21 26 30 34 39 45 48 53 56 59 64 65 66 66 66
Wind_Direction_850mb
349 47 83 217 240 229 242 253 316 94 79 60 119 26 54 48 21 126 142 153 177 161 157 152 148 151 146 142 139 140 141 137 135 124 113 101 127 137 147 149 140 115 137 127 112 99 101 100 93
347 358 258 261 244 252 253 169 142 131 113 119 87 0 296 92 73 132 146 160 174 159 157 155 151 152 151 146 143 147 143 145 141 127 119 99 110 116 130 128 119 119 123 127 114 94 94 98 93
350 212 265 220 228 265 305 112 156 113 117 142 128 24 19 82 115 143 151 160 167 160 161 159 155 156 155 153 151 151 152 158 137 135 123 119 121 130 140 122 119 113 109 106 119 110 97 90 90
63 239 260 258 265 220 245 69 125 112 136 166 157 120 92 80 135 168 155 157 158 160 169 162 161 159 157 159 156 158 162 165 172 145 133 136 148 129 135 132 126 124 117 114 115 109 97 86 83
288 263 246 234 257 274 75 3 128 130 157 184 195 140 101 126 155 163 154 158 161 156 173 166 167 165 163 164 164 168 175 196 215 153 150 146 137 148 138 136 137 135 129 125 115 112 103 88 80
282 235 252 237 257 251 84 106 264 160 178 185 196 124 111 153 158 151 158 154 144 174 180 175 173 172 172 172 175 179 183 173 153 155 151 154 145 144 151 164 162 154 147 133 128 117 107 93 79
246 283 250 257 265 269 137 142 225 188 180 164 139 233 140 152 162 156 158 158 158 185 178 175 176 178 179 180 180 182 181 171 164 163 164 161 156 145 153 172 159 161 158 164 161 149 137 112 72
307 275 268 268 271 290 122 139 204 229 200 162 181 155 163 167 164 159 159 164 167 188 174 174 177 175 180 181 182 184 186 185 170 174 177 182 173 179 176 181 184 197 183 196 199 213 237 294 353
270 274 239 248 259 275 101 148 166 256 128 142 165 32 132 168 162 161 164 169 175 182 182 178 179 182 183 186 189 192 196 203 209 196 199 187 190 191 177 195 203 223 218 233 228 245 266 290 295
215 232 248 265 269 310 329 184 158 142 203 178 153 129 160 174 169 166 172 174 180 179 184 188 193 186 187 191 190 193 198 206 212 213 211 210 205 205 210 213 224 236 244 232 238 248 260 265 267
219 235 267 273 20 5 339 325 258 178 219 193 185 157 177 182 177 169 180 181 185 186 182 190 199 187 194 199 189 194 194 199 201 202 202 200 184 219 221 232 238 243 241 239 237 245 251 251 268
267 246 271 315 342 355 325 320 293 193 244 223 196 185 187 189 179 177 178 187 188 193 190 191 196 190 203 198 206 207 201 201 199 203 202 200 197 215 222 235 233 235 236 242 252 255 259 267 270
222 248 253 303 334 316 301 296 285 285 238 258 198 178 190 193 184 190 188 180 194 200 199 197 201 201 206 200 209 208 209 205 202 204 207 207 211 219 223 225 236 244 248 249 247 252 259 267 271
187 237 261 299 307 306 281 275 273 266 245 211 167 175 193 198 188 193 198 191 194 197 196 199 199 205 213 207 207 201 212 221 215 217 220 218 219 226 228 228 233 241 246 252 255 256 262 268 272
205 189 297 255 258 282 304 271 251 242 255 229 191 194 198 196 194 203 200 193 206 210 200 202 202 201 208 219 208 208 215 220 223 216 227 230 221 225 233 233 235 239 244 247 250 248 248 257 266
194 200 227 217 232 254 285 270 268 233 249 236 193 210 205 198 202 209 202 206 207 227 205 211 212 200 207 214 215 213 221 221 228 226 227 232 231 229 233 236 240 245 246 249 248 251 254 257 260
205 215 223 227 218 218 234 280 257 271 233 210 224 215 209 203 201 208 205 206 215 227 207 219 227 213 207 209 209 213 218 225 228 230 232 236 237 235 237 241 244 245 245 247 249 250 251 248 262
166 221 220 214 197 206 231 248 281 287 301 201 237 239 214 203 206 206 209 216 206 215 214 213 231 225 214 210 215 218 221 222 228 234 237 239 240 238 238 241 243 245 241 242 247 255 253 263 268
243 211 212 199 216 189 220 240 252 289 293 264 250 262 237 211 213 208 208 212 215 209 217 215 225 224 216 216 218 220 221 224 231 236 238 242 243 242 239 240 242 245 240 247 253 262 257 252 256
242 254 225 175 44 179 209 242 257 270 281 260 245 250 268 239 213 209 205 204 213 209 220 217 226 231 222 221 223 228 227 231 241 240 241 242 246 247 247 245 244 244 241 243 250 252 256 255 249
228 234 237 176 122 23 358 254 223 239 255 270 282 256 257 275 246 216 196 206 216 219 215 222 219 229 234 231 229 232 240 240 242 240 243 244 247 249 249 252 249 246 245 245 247 246 253 255 251
232 223 245 144 139 179 113 262 220 229 225 238 261 249 242 251 249 227 226 221 214 220 230 230 227 224 228 239 234 234 236 247 251 250 249 251 252 252 252 250 251 249 249 247 245 245 255 253 251
247 196 220 149 137 124 170 219 235 263 224 222 228 236 228 236 245 254 244 232 204 214 225 227 224 230 232 230 238 239 241 252 258 256 260 260 258 255 252 249 247 248 248 253 253 242 245 253 253
221 271 180 165 100 253 192 185 203 197 217 217 218 190 168 204 233 234 225 210 210 212 216 221 230 227 225 228 234 240 247 252 255 256 256 260 261 260 257 252 248 247 246 247 249 249 243 247 248
200 194 136 166 186 229 173 187 235 250 73 90 77 80 91 87 81 317 258 253 252 247 239 243 246 244 238 236 235 237 245 253 258 261 262 259 255 257 261 260 255 254 248 248 248 248 247 246 245
202 198 167 172 193 162 154 217 245 227 254 108 97 95 92 95 132 159 324 321 278 275 271 256 257 257 255 249 245 241 239 245 254 257 258 258 252 256 261 262 262 258 256 252 247 248 250 249 248
195 213 212 134 81 121 187 238 208 146 118 103 103 98 95 93 86 79 79 72 58 42 25 357 309 275 270 271 266 257 248 240 241 244 246 248 248 252 257 260 263 263 253 246 244 247 252 252 252
192 199 214 255 134 197 192 193 205 164 136 121 113 111 105 98 89 83 77 72 67 61 53 45 37 26 3 325 293 270 265 260 252 251 253 250 248 248 251 252 252 265 264 255 249 252 258 258 256
196 201 206 186 198 163 133 227 305 148 137 123 112 114 109 100 89 77 70 62 59 55 51 48 46 42 35 28 20 3 327 290 272 264 262 262 261 258 255 253 255 256 257 259 258 258 256 252 254
223 208 196 190 228 231 128 353 340 112 114 112 115 114 102 87 78 69 67 60 51 44 37 36 36 41 41 38 34 26 12 354 334 309 288 276 267 262 260 256 254 254 254 255 256 258 259 260 260